| time (UTC) | temp F | wind direction | speed knots | gust knots | rain 1hr in | rain 24hr in | rain mn in | humidity % | barometer mb |
| 20260506122328 | 46 | 14 | 0.0 | 0.0 | 0.00 | 1.34 | 0.23 | 95 | 1018.8 |
| 20260506122052 | 46 | 14 | 0.0 | 0.0 | 0.00 | 1.34 | 0.23 | 95 | 1019.1 |
| 20260506121316 | 45 | 14 | 0.0 | 0.0 | 0.00 | 1.34 | 0.23 | 95 | 1018.9 |
| 20260506120810 | 45 | 14 | 0.0 | 0.0 | 0.00 | 1.34 | 0.23 | 95 | 1018.7 |
| 20260506120303 | 45 | 14 | 0.0 | 0.0 | 0.01 | 1.34 | 0.23 | 95 | 1018.8 |
| 20260506115757 | 45 | 14 | 0.0 | 0.0 | 0.01 | 1.34 | 0.23 | 94 | 1018.6 |
| 20260506115252 | 45 | 14 | 0.0 | 0.0 | 0.01 | 1.34 | 0.23 | 94 | 1018.7 |
| 20260506114745 | 45 | 14 | 0.0 | 0.0 | 0.01 | 1.34 | 0.23 | 94 | 1018.7 |
| 20260506114239 | 45 | 14 | 0.0 | 0.0 | 0.01 | 1.34 | 0.23 | 94 | 1018.5 |
| 20260506113734 | 45 | 14 | 0.0 | 0.0 | 0.01 | 1.34 | 0.23 | 94 | 1018.3 |
| 20260506113227 | 45 | 14 | 0.0 | 0.0 | 0.01 | 1.34 | 0.23 | 94 | 1018.2 |
| 20260506112953 | 45 | 14 | 0.0 | 1.7 | 0.01 | 1.34 | 0.23 | 94 | 1018.1 |
| 20260506112215 | 45 | 14 | 0.0 | 1.7 | 0.01 | 1.34 | 0.23 | 94 | 1018.1 |
| 20260506111710 | 45 | 14 | 0.0 | 1.7 | 0.01 | 1.34 | 0.23 | 94 | 1018.1 |
| 20260506111203 | 45 | 14 | 0.0 | 1.7 | 0.01 | 1.34 | 0.23 | 94 | 1017.7 |
| 20260506110928 | 45 | 14 | 0.0 | 1.7 | 0.01 | 1.34 | 0.23 | 94 | 1017.7 |
| 20260506110151 | 45 | 14 | 0.0 | 1.7 | 0.00 | 1.33 | 0.22 | 94 | 1017.6 |
| 20260506105917 | 45 | 14 | 0.0 | 1.7 | 0.00 | 1.33 | 0.22 | 94 | 1017.5 |
| 20260506105140 | 45 | 14 | 0.0 | 1.7 | 0.00 | 1.33 | 0.22 | 94 | 1017.4 |
| 20260506104634 | 44 | 14 | 0.0 | 1.7 | 0.00 | 1.33 | 0.22 | 94 | 1017.6 |
| 20260506104127 | 45 | 14 | 0.0 | 1.7 | 0.00 | 1.33 | 0.22 | 94 | 1017.8 |
| 20260506103851 | 44 | 14 | 0.0 | 1.7 | 0.01 | 1.33 | 0.22 | 94 | 1017.7 |
| 20260506103116 | 45 | 15 | 0.0 | 1.7 | 0.01 | 1.33 | 0.22 | 94 | 1017.6 |
| 20260506102609 | 45 | 14 | 0.0 | 1.7 | 0.01 | 1.33 | 0.22 | 94 | 1017.6 |
| 20260506102333 | 44 | 82 | 0.0 | 1.7 | 0.02 | 1.33 | 0.22 | 94 | 1017.1 |
| 20260506101557 | 44 | 82 | 0.0 | 1.7 | 0.02 | 1.33 | 0.22 | 94 | 1016.9 |
| 20260506101322 | 44 | 82 | 0.0 | 1.7 | 0.02 | 1.33 | 0.22 | 94 | 1016.8 |
| 20260506100545 | 44 | 82 | 0.0 | 1.7 | 0.02 | 1.33 | 0.22 | 94 | 1016.6 |
| 20260506100040 | 45 | 82 | 0.0 | 1.7 | 0.02 | 1.33 | 0.22 | 94 | 1016.7 |
| 20260506095806 | 44 | 82 | 0.0 | 1.7 | 0.02 | 1.33 | 0.22 | 94 | 1016.9 |
| 20260506095258 | 45 | 82 | 0.0 | 1.7 | 0.03 | 1.33 | 0.22 | 94 | 1017.2 |
| 20260506094522 | 45 | 75 | 0.0 | 1.7 | 0.03 | 1.33 | 0.22 | 94 | 1017.3 |
| 20260506094015 | 45 | 34 | 0.0 | 2.6 | 0.03 | 1.33 | 0.22 | 94 | 1017.8 |
| 20260506093509 | 45 | 101 | 0.9 | 2.6 | 0.02 | 1.32 | 0.21 | 94 | 1017.9 |
| 20260506093004 | 45 | 44 | 0.9 | 2.6 | 0.03 | 1.32 | 0.21 | 94 | 1018.0 |
| 20260506092729 | 46 | 44 | 0.0 | 2.6 | 0.04 | 1.32 | 0.21 | 94 | 1017.8 |
| 20260506091952 | 46 | 63 | 0.0 | 1.7 | 0.04 | 1.31 | 0.20 | 94 | 1017.6 |
| 20260506091445 | 46 | 59 | 0.0 | 1.7 | 0.05 | 1.31 | 0.20 | 94 | 1017.4 |
| 20260506090940 | 46 | 49 | 0.0 | 1.7 | 0.06 | 1.31 | 0.20 | 94 | 1017.2 |
| 20260506090708 | 46 | 49 | 0.0 | 1.7 | 0.07 | 1.31 | 0.20 | 94 | 1017.2 |
| 20260506085935 | 46 | 49 | 0.0 | 1.7 | 0.07 | 1.31 | 0.20 | 94 | 1017.2 |
| 20260506085433 | 46 | 49 | 0.0 | 1.7 | 0.08 | 1.31 | 0.20 | 94 | 1017.1 |
| 20260506084933 | 46 | 49 | 0.0 | 0.9 | 0.07 | 1.30 | 0.19 | 94 | 1016.9 |
| 20260506084433 | 46 | 49 | 0.0 | 1.7 | 0.08 | 1.30 | 0.19 | 94 | 1016.9 |
| 20260506083931 | 46 | 49 | 0.0 | 1.7 | 0.08 | 1.30 | 0.19 | 94 | 1017.0 |
| 20260506083429 | 46 | 49 | 0.0 | 1.7 | 0.09 | 1.30 | 0.19 | 94 | 1017.0 |
| 20260506082928 | 46 | 49 | 0.0 | 1.7 | 0.08 | 1.29 | 0.18 | 94 | 1017.0 |
| 20260506082429 | 46 | 49 | 0.0 | 1.7 | 0.08 | 1.28 | 0.17 | 94 | 1017.3 |
| 20260506081927 | 45 | 49 | 0.0 | 1.7 | 0.07 | 1.27 | 0.16 | 94 | 1017.4 |
| 20260506081425 | 45 | 49 | 0.0 | 0.0 | 0.07 | 1.26 | 0.15 | 94 | 1017.5 |
| 20260506080927 | 45 | 49 | 0.0 | 0.0 | 0.06 | 1.25 | 0.14 | 94 | 1017.7 |
| 20260506080425 | 45 | 49 | 0.0 | 0.0 | 0.05 | 1.24 | 0.13 | 94 | 1017.7 |
| 20260506073417 | 45 | 49 | 0.0 | 1.7 | 0.03 | 1.21 | 0.10 | 94 | 1017.3 |
| 20260506072914 | 45 | 49 | 0.0 | 1.7 | 0.04 | 1.21 | 0.10 | 94 | 1017.3 |
| 20260506072415 | 45 | 49 | 0.0 | 1.7 | 0.03 | 1.20 | 0.09 | 94 | 1017.2 |
| 20260506071915 | 45 | 49 | 0.0 | 1.7 | 0.03 | 1.20 | 0.09 | 94 | 1017.2 |
| 20260506071645 | 45 | 49 | 0.0 | 1.7 | 0.02 | 1.19 | 0.08 | 94 | 1017.2 |
| 20260506071144 | 45 | 49 | 0.0 | 1.7 | 0.02 | 1.19 | 0.08 | 94 | 1017.2 |
| 20260506070644 | 45 | 49 | 0.0 | 1.7 | 0.03 | 1.19 | 0.08 | 94 | 1017.3 |
| 20260506062408 | 46 | 49 | 0.0 | 1.7 | 0.03 | 1.17 | 0.06 | 94 | 1017.4 |
| 20260506061908 | 46 | 49 | 0.0 | 1.7 | 0.04 | 1.17 | 0.06 | 94 | 1017.3 |
| 20260506061409 | 46 | 49 | 0.0 | 0.0 | 0.04 | 1.17 | 0.06 | 94 | 1017.2 |
| 20260506060908 | 46 | 49 | 0.0 | 1.7 | 0.05 | 1.17 | 0.06 | 94 | 1017.4 |
| 20260506060409 | 46 | 49 | 0.0 | 1.7 | 0.04 | 1.16 | 0.06 | 94 | 1017.5 |
| 20260506051404 | 46 | 49 | 0.0 | 1.7 | 0.03 | 1.12 | 0.02 | 93 | 1017.8 |
| 20260506050622 | 46 | 49 | 0.0 | 1.7 | 0.03 | 1.11 | 0.01 | 93 | 1017.9 |
| 20260506044834 | 46 | 49 | 0.0 | 1.7 | 0.04 | 1.11 | 1.11 | 93 | 1018.1 |
| 20260506044328 | 47 | 49 | 0.0 | 1.7 | 0.04 | 1.10 | 1.10 | 93 | 1018.1 |
| 20260506043822 | 47 | 49 | 0.0 | 1.7 | 0.05 | 1.10 | 1.10 | 93 | 1018.1 |
| 20260506042810 | 47 | 58 | 0.0 | 1.7 | 0.06 | 1.10 | 1.10 | 93 | 1018.1 |
| 20260506042305 | 47 | 58 | 0.0 | 1.7 | 0.06 | 1.09 | 1.09 | 93 | 1018.2 |
| 20260506041758 | 47 | 58 | 0.0 | 1.7 | 0.07 | 1.09 | 1.09 | 94 | 1018.3 |
| 20260506041253 | 47 | 58 | 0.0 | 1.7 | 0.08 | 1.09 | 1.09 | 93 | 1018.4 |
| 20260506040746 | 47 | 58 | 0.0 | 1.7 | 0.08 | 1.08 | 1.08 | 93 | 1018.5 |
| 20260506040240 | 47 | 58 | 0.0 | 1.7 | 0.10 | 1.08 | 1.08 | 93 | 1018.5 |
| 20260506035735 | 47 | 58 | 0.0 | 1.7 | 0.10 | 1.07 | 1.07 | 93 | 1018.5 |
| 20260506035227 | 48 | 58 | 0.0 | 1.7 | 0.12 | 1.07 | 1.07 | 93 | 1018.6 |
| 20260506034953 | 48 | 42 | 0.0 | 1.7 | 0.12 | 1.06 | 1.06 | 93 | 1018.6 |
| 20260506034217 | 48 | 45 | 0.0 | 1.7 | 0.13 | 1.06 | 1.06 | 94 | 1018.7 |
| 20260506033710 | 49 | 59 | 0.0 | 1.7 | 0.14 | 1.05 | 1.05 | 94 | 1018.7 |
| 20260506033203 | 49 | 11 | 0.0 | 1.7 | 0.15 | 1.04 | 1.04 | 94 | 1018.7 |
| 20260506032658 | 49 | 11 | 0.0 | 1.7 | 0.15 | 1.03 | 1.04 | 94 | 1018.7 |
| 20260506032422 | 49 | 11 | 0.0 | 1.7 | 0.16 | 1.03 | 1.03 | 94 | 1018.6 |
| 20260506031646 | 49 | 11 | 0.0 | 1.7 | 0.17 | 1.02 | 1.02 | 94 | 1018.5 |
| 20260506031139 | 49 | 11 | 0.0 | 1.7 | 0.17 | 1.01 | 1.01 | 94 | 1018.6 |
| 20260506030633 | 49 | 11 | 0.0 | 1.7 | 0.19 | 1.00 | 1.00 | 94 | 1018.8 |
| 20260506030127 | 49 | 11 | 0.0 | 0.9 | 0.17 | 0.98 | 0.98 | 94 | 1018.7 |
| 20260506025622 | 49 | 11 | 0.0 | 1.7 | 0.18 | 0.97 | 0.97 | 94 | 1018.6 |
| 20260506025115 | 49 | 11 | 0.0 | 1.7 | 0.17 | 0.95 | 0.95 | 94 | 1018.5 |
| 20260506024609 | 49 | 11 | 0.0 | 1.7 | 0.17 | 0.94 | 0.94 | 94 | 1018.2 |
| 20260506024104 | 49 | 34 | 0.0 | 1.7 | 0.16 | 0.92 | 0.93 | 94 | 1018.2 |
| 20260506023558 | 49 | 34 | 0.0 | 1.7 | 0.14 | 0.90 | 0.91 | 93 | 1018.3 |
| 20260506023051 | 49 | 34 | 0.0 | 1.7 | 0.13 | 0.89 | 0.89 | 94 | 1018.1 |
| 20260506022817 | 49 | 34 | 0.0 | 1.7 | 0.12 | 0.88 | 0.88 | 94 | 1018.2 |
| 20260506022040 | 49 | 34 | 0.0 | 0.0 | 0.11 | 0.86 | 0.87 | 94 | 1018.1 |
| 20260506021805 | 49 | 34 | 0.0 | 0.0 | 0.10 | 0.85 | 0.85 | 94 | 1018.1 |
| 20260506021027 | 49 | 34 | 0.0 | 0.0 | 0.09 | 0.84 | 0.84 | 94 | 1018.1 |
| 20260506020522 | 49 | 34 | 0.0 | 0.0 | 0.07 | 0.81 | 0.81 | 94 | 1018.1 |
| 20260506020016 | 49 | 34 | 0.0 | 0.0 | 0.06 | 0.80 | 0.80 | 93 | 1018.2 |
| 20260506015740 | 49 | 34 | 0.0 | 0.0 | 0.06 | 0.79 | 0.79 | 94 | 1018.2 |
| 20260506015003 | 49 | 34 | 0.0 | 0.0 | 0.06 | 0.78 | 0.78 | 94 | 1018.2 |
| 20260506014459 | 49 | 34 | 0.0 | 0.0 | 0.06 | 0.77 | 0.77 | 93 | 1018.2 |
| 20260506013952 | 49 | 34 | 0.0 | 0.0 | 0.06 | 0.76 | 0.76 | 93 | 1018.2 |
| 20260506013445 | 49 | 34 | 0.0 | 0.0 | 0.07 | 0.76 | 0.76 | 93 | 1018.1 |
| 20260506013210 | 49 | 34 | 0.0 | 0.0 | 0.08 | 0.76 | 0.76 | 93 | 1018.0 |
| 20260506012434 | 49 | 34 | 0.0 | 0.0 | 0.08 | 0.76 | 0.76 | 93 | 1017.9 |
| 20260506011927 | 49 | 34 | 0.0 | 1.7 | 0.07 | 0.75 | 0.75 | 93 | 1018.0 |
| 20260506011422 | 49 | 34 | 0.0 | 1.7 | 0.07 | 0.75 | 0.75 | 93 | 1017.9 |
| 20260506010915 | 49 | 34 | 0.0 | 1.7 | 0.07 | 0.75 | 0.75 | 93 | 1017.8 |
| 20260506010410 | 49 | 69 | 0.0 | 1.7 | 0.06 | 0.74 | 0.74 | 93 | 1017.7 |
| 20260506005903 | 49 | 30 | 0.0 | 1.7 | 0.06 | 0.74 | 0.74 | 93 | 1017.8 |
| 20260506005358 | 49 | 30 | 0.0 | 1.7 | 0.05 | 0.73 | 0.73 | 93 | 1018.0 |
| 20260506004345 | 49 | 118 | 0.0 | 1.7 | 0.03 | 0.70 | 0.71 | 93 | 1017.7 |
| 20260506004111 | 49 | 118 | 0.0 | 1.7 | 0.02 | 0.69 | 0.69 | 93 | 1017.5 |
| 20260506003604 | 49 | 118 | 0.0 | 1.7 | 0.02 | 0.69 | 0.69 | 93 | 1017.5 |
| 20260506002828 | 49 | 118 | 0.0 | 1.7 | 0.02 | 0.68 | 0.68 | 93 | 1017.6 |
| 20260506002552 | 49 | 118 | 0.0 | 1.7 | 0.02 | 0.68 | 0.68 | 93 | 1017.6 |
| 20260506001816 | 49 | 118 | 0.0 | 1.7 | 0.03 | 0.68 | 0.68 | 93 | 1017.5 |
| 20260506001541 | 49 | 118 | 0.0 | 1.7 | 0.04 | 0.68 | 0.68 | 93 | 1017.6 |
| 20260506000803 | 49 | 130 | 0.0 | 1.7 | 0.06 | 0.68 | 0.68 | 93 | 1017.4 |
| 20260506000529 | 49 | 130 | 0.0 | 1.7 | 0.12 | 0.68 | 0.68 | 93 | 1017.3 |
| 20260506000022 | 49 | 130 | 0.0 | 1.7 | 0.13 | 0.68 | 0.68 | 93 | 1017.4 |
| 20260505235245 | 49 | 130 | 0.0 | 1.7 | 0.13 | 0.68 | 0.68 | 93 | 1017.3 |
| 20260505234745 | 49 | 75 | 0.0 | 1.7 | 0.12 | 0.67 | 0.67 | 93 | 1017.4 |
| 20260505234244 | 49 | 75 | 0.0 | 1.7 | 0.13 | 0.67 | 0.67 | 93 | 1017.7 |
| 20260505233744 | 49 | 89 | 0.0 | 1.7 | 0.15 | 0.67 | 0.67 | 93 | 1017.7 |
| 20260505233244 | 49 | 89 | 0.0 | 1.7 | 0.17 | 0.67 | 0.67 | 93 | 1017.9 |
| 20260505232746 | 49 | 88 | 0.0 | 1.7 | 0.17 | 0.66 | 0.66 | 92 | 1017.8 |
| 20260505232244 | 49 | 79 | 0.0 | 1.7 | 0.17 | 0.66 | 0.66 | 92 | 1017.9 |
| 20260505232015 | 49 | 93 | 0.0 | 1.7 | 0.18 | 0.65 | 0.65 | 92 | 1017.7 |
| 20260505231514 | 49 | 93 | 0.0 | 1.7 | 0.19 | 0.64 | 0.64 | 92 | 1018.0 |
| 20260505230741 | 49 | 93 | 0.0 | 1.7 | 0.18 | 0.62 | 0.62 | 92 | 1018.4 |
| 20260505230242 | 49 | 344 | 0.0 | 1.7 | 0.13 | 0.56 | 0.56 | 92 | 1018.3 |
| 20260505225741 | 49 | 44 | 0.0 | 1.7 | 0.13 | 0.55 | 0.55 | 92 | 1017.7 |
| 20260505225513 | 49 | 46 | 0.0 | 1.7 | 0.15 | 0.55 | 0.55 | 92 | 1017.7 |
| 20260505224738 | 49 | 67 | 0.0 | 1.7 | 0.16 | 0.55 | 0.55 | 92 | 1017.7 |
| 20260505223737 | 49 | 53 | 0.0 | 1.7 | 0.14 | 0.52 | 0.52 | 91 | 1018.0 |
| 20260505223238 | 49 | 21 | 0.0 | 1.7 | 0.14 | 0.50 | 0.50 | 92 | 1018.1 |
| 20260505222738 | 49 | 47 | 0.0 | 1.7 | 0.14 | 0.49 | 0.50 | 91 | 1017.8 |
| 20260505222508 | 49 | 32 | 0.0 | 1.7 | 0.16 | 0.48 | 0.48 | 91 | 1017.8 |
| 20260505221737 | 49 | 28 | 0.0 | 1.7 | 0.17 | 0.47 | 0.47 | 91 | 1017.9 |
| 20260505221237 | 49 | 52 | 0.0 | 1.7 | 0.17 | 0.45 | 0.46 | 91 | 1017.9 |
| 20260505221009 | 49 | 27 | 0.0 | 1.7 | 0.17 | 0.44 | 0.45 | 91 | 1017.8 |
| 20260505220234 | 50 | 28 | 0.0 | 1.7 | 0.20 | 0.43 | 0.43 | 91 | 1017.8 |
| 20260505215733 | 50 | 67 | 0.0 | 1.7 | 0.19 | 0.42 | 0.42 | 91 | 1017.6 |
| 20260505215234 | 50 | 52 | 0.0 | 1.7 | 0.18 | 0.40 | 0.40 | 91 | 1017.8 |
| 20260505214734 | 50 | 14 | 0.0 | 1.7 | 0.18 | 0.39 | 0.39 | 91 | 1017.6 |
| 20260505214234 | 50 | 21 | 0.0 | 1.7 | 0.19 | 0.38 | 0.38 | 91 | 1017.5 |
| 20260505213733 | 51 | 21 | 0.0 | 1.7 | 0.20 | 0.38 | 0.38 | 91 | 1017.7 |
| 20260505213234 | 51 | 44 | 0.0 | 2.6 | 0.20 | 0.36 | 0.36 | 90 | 1017.8 |
| 20260505212734 | 51 | 34 | 0.9 | 2.6 | 0.23 | 0.35 | 0.35 | 90 | 1017.7 |
| 20260505212233 | 51 | 23 | 0.9 | 2.6 | 0.23 | 0.32 | 0.32 | 90 | 1017.9 |
| 20260505212002 | 51 | 44 | 0.9 | 2.6 | 0.21 | 0.30 | 0.30 | 89 | 1017.7 |
| 20260505211232 | 52 | 355 | 0.9 | 2.6 | 0.20 | 0.28 | 0.28 | 89 | 1017.7 |
| 20260505210732 | 52 | 29 | 0.9 | 2.6 | 0.20 | 0.27 | 0.27 | 89 | 1017.4 |
| 20260505210231 | 53 | 22 | 0.9 | 2.6 | 0.16 | 0.23 | 0.24 | 89 | 1017.5 |
| 20260505205732 | 54 | 342 | 0.9 | 2.6 | 0.17 | 0.23 | 0.23 | 89 | 1017.2 |
| 20260505205231 | 55 | 31 | 0.9 | 2.6 | 0.17 | 0.22 | 0.22 | 90 | 1017.2 |
| 20260505204731 | 56 | 41 | 0.0 | 1.7 | 0.17 | 0.21 | 0.21 | 90 | 1017.2 |
| 20260505204232 | 56 | 24 | 0.0 | 1.7 | 0.16 | 0.19 | 0.19 | 90 | 1017.2 |
| 20260505203727 | 56 | 329 | 0.0 | 1.7 | 0.16 | 0.18 | 0.18 | 90 | 1017.1 |
| 20260505203228 | 56 | 329 | 0.0 | 1.7 | 0.14 | 0.16 | 0.16 | 90 | 1017.2 |
| 20260505202725 | 56 | 329 | 0.0 | 1.7 | 0.11 | 0.12 | 0.13 | 90 | 1017.3 |
| 20260505202225 | 56 | 329 | 0.0 | 1.7 | 0.08 | 0.09 | 0.10 | 90 | 1017.0 |
| 20260505201722 | 56 | 329 | 0.0 | 1.7 | 0.08 | 0.09 | 0.09 | 89 | 1017.0 |
| 20260505201219 | 56 | 329 | 0.0 | 1.7 | 0.08 | 0.08 | 0.08 | 89 | 1017.1 |
| 20260505200717 | 56 | 329 | 0.0 | 1.7 | 0.07 | 0.07 | 0.07 | 88 | 1017.1 |
| 20260505200217 | 56 | 329 | 0.0 | 1.7 | 0.07 | 0.07 | 0.07 | 88 | 1017.2 |
| 20260505195710 | 56 | 329 | 0.0 | 1.7 | 0.06 | 0.06 | 0.06 | 88 | 1017.2 |
| 20260505195205 | 56 | 28 | 0.0 | 1.7 | 0.05 | 0.05 | 0.05 | 87 | 1017.4 |
| 20260505194152 | 57 | 313 | 0.0 | 2.6 | 0.03 | 0.03 | 0.03 | 85 | 1017.6 |
| 20260505193647 | 57 | 11 | 0.0 | 2.6 | 0.02 | 0.02 | 0.02 | 85 | 1017.3 |
| 20260505193141 | 57 | 11 | 0.0 | 2.6 | 0.02 | 0.02 | 0.02 | 83 | 1017.3 |
| 20260505192635 | 58 | 0 | 0.0 | 2.6 | 0.01 | 0.01 | 0.01 | 82 | 1017.5 |
| 20260505192129 | 58 | 350 | 0.0 | 1.7 | 0.01 | 0.01 | 0.01 | 81 | 1017.4 |
| 20260505191623 | 58 | 298 | 0.0 | 1.7 | 0.01 | 0.01 | 0.01 | 80 | 1017.3 |
| 20260505191117 | 59 | 87 | 0.9 | 1.7 | 0.00 | 0.00 | 0.00 | 79 | 1017.3 |
| 20260505190611 | 59 | 334 | 0.9 | 4.3 | 0.00 | 0.00 | 0.00 | 78 | 1017.2 |
| 20260505190105 | 60 | 290 | 0.9 | 4.3 | 0.00 | 0.00 | 0.00 | 77 | 1017.3 |
| 20260505185559 | 60 | 17 | 0.9 | 4.3 | 0.00 | 0.00 | 0.00 | 76 | 1017.3 |
| 20260505185053 | 61 | 91 | 0.9 | 4.3 | 0.00 | 0.00 | 0.00 | 74 | 1017.3 |
| 20260505184818 | 62 | 74 | 0.9 | 4.3 | 0.00 | 0.00 | 0.00 | 72 | 1017.3 |
| 20260505184041 | 62 | 40 | 0.9 | 4.3 | 0.00 | 0.00 | 0.00 | 72 | 1017.3 |
| 20260505183534 | 63 | 5 | 0.9 | 5.2 | 0.00 | 0.00 | 0.00 | 71 | 1017.3 |
| 20260505183029 | 63 | 0 | 0.9 | 5.2 | 0.00 | 0.00 | 0.00 | 71 | 1017.3 |
| 20260505182523 | 63 | 320 | 0.9 | 4.3 | 0.00 | 0.00 | 0.00 | 71 | 1017.2 |
| 20260505182017 | 63 | 309 | 0.0 | 3.5 | 0.00 | 0.00 | 0.00 | 71 | 1017.2 |
| 20260505181742 | 63 | 351 | 0.9 | 3.5 | 0.00 | 0.00 | 0.00 | 71 | 1017.2 |
| 20260505181005 | 63 | 342 | 0.0 | 3.5 | 0.00 | 0.00 | 0.00 | 71 | 1017.1 |
| 20260505180459 | 63 | 17 | 0.0 | 3.5 | 0.00 | 0.00 | 0.00 | 71 | 1017.1 |
| 20260505175952 | 63 | 347 | 0.9 | 7.8 | 0.00 | 0.00 | 0.00 | 71 | 1017.1 |
| 20260505175447 | 63 | 51 | 0.9 | 7.8 | 0.00 | 0.00 | 0.00 | 71 | 1017.1 |
| 20260505174941 | 63 | 24 | 1.7 | 7.8 | 0.00 | 0.00 | 0.00 | 70 | 1017.1 |
| 20260505174435 | 63 | 12 | 1.7 | 7.8 | 0.00 | 0.00 | 0.00 | 71 | 1017.0 |
| 20260505174200 | 63 | 35 | 1.7 | 6.1 | 0.00 | 0.00 | 0.00 | 71 | 1017.0 |
| 20260505173425 | 63 | 26 | 1.7 | 6.1 | 0.00 | 0.00 | 0.00 | 70 | 1016.9 |
| 20260505172917 | 63 | 63 | 0.9 | 6.1 | 0.00 | 0.00 | 0.00 | 70 | 1017.0 |
| 20260505172411 | 63 | 178 | 0.9 | 6.1 | 0.00 | 0.00 | 0.00 | 71 | 1016.9 |
| 20260505171905 | 63 | 23 | 0.9 | 6.1 | 0.00 | 0.00 | 0.00 | 70 | 1017.0 |
| 20260505171359 | 63 | 22 | 0.9 | 3.5 | 0.00 | 0.00 | 0.00 | 70 | 1017.0 |
| 20260505170853 | 63 | 305 | 0.9 | 1.7 | 0.00 | 0.00 | 0.00 | 69 | 1016.9 |
| 20260505170347 | 63 | 34 | 0.9 | 2.6 | 0.00 | 0.00 | 0.00 | 69 | 1017.0 |
| 20260505165841 | 63 | 5 | 0.9 | 2.6 | 0.00 | 0.00 | 0.00 | 68 | 1017.0 |
| 20260505165335 | 63 | 344 | 0.9 | 1.7 | 0.00 | 0.00 | 0.00 | 68 | 1016.9 |
| 20260505164829 | 63 | 273 | 0.9 | 1.7 | 0.00 | 0.00 | 0.00 | 67 | 1016.9 |
| 20260505164323 | 64 | 230 | 0.9 | 4.3 | 0.00 | 0.00 | 0.00 | 66 | 1017.0 |
| 20260505163817 | 65 | 338 | 0.9 | 4.3 | 0.00 | 0.00 | 0.00 | 65 | 1016.9 |
| 20260505163311 | 65 | 337 | 0.9 | 7.8 | 0.00 | 0.00 | 0.00 | 63 | 1016.9 |
| 20260505162804 | 67 | 349 | 1.7 | 7.8 | 0.00 | 0.00 | 0.00 | 61 | 1016.8 |
| 20260505162259 | 68 | 115 | 1.7 | 10.4 | 0.00 | 0.00 | 0.00 | 58 | 1016.8 |
| 20260505161753 | 69 | 308 | 1.7 | 10.4 | 0.00 | 0.00 | 0.00 | 56 | 1016.7 |
| 20260505161246 | 69 | 122 | 2.6 | 11.3 | 0.00 | 0.00 | 0.00 | 54 | 1016.6 |
| 20260505160742 | 71 | 130 | 2.6 | 11.3 | 0.00 | 0.00 | 0.00 | 54 | 1016.5 |
| 20260505160235 | 70 | 16 | 3.5 | 8.7 | 0.00 | 0.00 | 0.00 | 54 | 1016.5 |
| 20260505153158 | 69 | 5 | 2.6 | 10.4 | 0.00 | 0.00 | 0.00 | 55 | 1015.9 |
| 20260505152924 | 69 | 234 | 2.6 | 10.4 | 0.00 | 0.00 | 0.00 | 55 | 1015.7 |
| 20260505152146 | 69 | 175 | 2.6 | 15.6 | 0.00 | 0.00 | 0.00 | 55 | 1015.6 |
| 20260505151641 | 69 | 202 | 2.6 | 15.6 | 0.00 | 0.00 | 0.00 | 56 | 1015.7 |
| 20260505151135 | 68 | 30 | 3.5 | 15.6 | 0.00 | 0.00 | 0.00 | 56 | 1015.8 |
| 20260505150629 | 68 | 178 | 2.6 | 15.6 | 0.00 | 0.00 | 0.00 | 57 | 1015.8 |
| 20260505150122 | 67 | 30 | 2.6 | 9.6 | 0.00 | 0.00 | 0.00 | 59 | 1015.8 |
| 20260505140517 | 67 | 148 | 4.3 | 12.2 | 0.00 | 0.00 | 0.00 | 61 | 1015.3 |
| 20260505130129 | 62 | 194 | 1.7 | 8.7 | 0.00 | 0.00 | 0.00 | 69 | 1015.4 |
| 20260505124846 | 62 | 193 | 1.7 | 8.7 | 0.00 | 0.00 | 0.00 | 68 | 1015.5 |
| 20260505124340 | 62 | 215 | 1.7 | 8.7 | 0.00 | 0.00 | 0.00 | 68 | 1015.4 |
| 20260505123841 | 62 | 276 | 1.7 | 6.1 | 0.00 | 0.00 | 0.00 | 68 | 1015.4 |
| 20260505122841 | 62 | 152 | 1.7 | 7.0 | 0.00 | 0.00 | 0.00 | 68 | 1015.2 |